#timestamp,LO_Frequency,Hit,StdDev 
1552741215.4,286047002.5,N
1552741235.2,286047002.1,N
1552741255.0,286047002.4,N
1552741255.9,286047002.4,N
1552741275.8,286047002.4,N
1552741295.6,286047002.1,N
1552741315.5,286047000.0,N
1552741335.3,286047000.1,N
1552741355.1,286047002.4,N
1552741375.9,286047002.4,N
1552741395.7,286047000.1,N
1552741415.5,286047000.0,N
1552741435.4,286047000.1,N
1552741455.2,286047000.3,N
1552741475.1,286046999.5,N
1552741476.0,286046999.5,N
1552741495.8,286046998.2,N
1552741515.6,286047002.3,N
1552741535.5,286047001.6,N
1552741555.3,286047001.4,N
1552741575.2,286047001.6,N
1552741595.9,286047003.7,Y
1552741615.7,286047002.2,P
1552741635.6,286047002.1,P
1552741655.4,286047001.5,P
1552741675.2,286047002.1,Y
1552741695.1,286047000.0,P
1552741696.0,286047000.0,N
1552741715.8,286046998.4,N
1552741735.7,286046998.1,N
1552741755.5,286047000.7,N
1552741775.3,286046998.4,N
1552741795.2,286047000.8,N
1552741815.0,286047000.0,N
1552741815.9,286047000.0,N
1552741835.7,286047001.2,N
1552741855.6,286046999.1,N
1552741875.4,286046998.3,N
1552741895.3,286046998.7,N
1552741915.1,286046998.7,N
1552741916.0,286046998.7,N
1552741935.8,286047000.8,N
1552741955.7,286046998.3,N
1552741975.5,286046999.6,N
1552741995.3,286046997.8,N
1552742015.2,286046995.9,Y
1552742035.0,286046996.2,P
1552742035.9,286046996.2,N
1552742055.8,286046996.5,N
1552742075.6,286046998.3,N
1552742095.4,286046999.2,N
1552742115.3,286046999.1,N
1552742135.1,286046999.0,N
1552742155.8,286046999.6,N
1552742175.7,286046998.5,N
1552742195.5,286046998.3,N
1552742215.4,286047000.9,N
1552742235.2,286046998.5,N
1552742255.0,286047000.6,N
1552742255.9,286047000.6,N
1552742275.8,286046998.2,N
1552742295.6,286046996.6,N
1552742315.4,286046994.9,Y
1552742335.3,286046999.1,P
1552742355.1,286046998.2,P
1552742375.9,286047001.2,P
1552742395.7,286047002.8,N
1552742415.5,286047000.2,N
1552742435.4,286047000.7,N
1552742455.2,286046998.8,N
1552742475.0,286046999.5,N
1552742475.9,286046999.5,N
1552742495.8,286046999.6,N
1552742515.6,286046997.9,N
1552742535.5,286046997.4,N
1552742555.3,286046997.2,N
1552742575.1,286046997.2,N
1552742595.9,286046996.6,N
1552742615.7,286046998.7,N
1552742635.5,286047001.2,N
1552742655.4,286047000.0,N
1552742675.2,286046999.7,N
1552742695.0,286047001.2,N
1552742696.0,286047001.2,N
1552742715.8,286047002.4,N
1552742735.6,286047000.5,N
1552742755.5,286047000.2,N
1552742775.3,286047000.1,N
1552742795.1,286046999.8,N
1552742815.9,286047000.4,N
1552742835.7,286046999.9,N
1552742855.5,286047000.4,N
1552742875.4,286047000.8,N
1552742925.2,286047000.5,E
1552742935.2,286047000.2,N
1552742955.9,286046998.5,P
1552742975.7,286047002.4,N
1552742995.6,286047002.8,N
1552743015.4,286047000.1,N
1552743035.2,286046999.9,N
1552743055.1,286047001.9,N
1552743056.0,286047001.9,N
1552743075.8,286047001.9,N
1552743095.7,286047001.3,N
1552743115.5,286047000.0,N
1552743135.3,286047002.1,N
1552743155.2,286047002.1,N
1552743175.0,286047002.8,N
1552743175.9,286047002.8,N
1552743195.8,286047002.0,N
1552743215.6,286047002.0,N
1552743235.4,286047001.3,N
1552743255.3,286047003.9,Y
1552743275.1,286046999.7,P
1552743295.8,286046999.7,N
1552743315.7,286046999.7,N
1552743335.5,286047002.7,Y
1552743355.4,286047000.0,P
1552743375.2,286047000.4,P
1552743395.0,286047000.8,P
1552743395.9,286047000.8,N
1552743415.8,286046998.5,Y
1552743435.6,286047001.1,P
1552743455.4,286047000.5,N
1552743475.3,286047000.7,N
1552743495.1,286046998.4,Y
1552743515.9,286046999.2,P
1552743535.7,286046996.8,P
1552743555.5,286046997.0,N
1552743575.4,286046998.0,N
1552743595.2,286046995.2,Y
1552743615.1,286046996.6,P
1552743616.0,286046996.6,P
1552743635.8,286046999.5,N
1552743655.6,286046999.0,N
1552743675.5,286046998.6,N
1552743695.3,286046999.9,N
1552743715.1,286046999.7,N
1552743735.9,286046999.9,N
1552743755.7,286047000.4,N
1552743775.6,286047002.3,N
1552743795.4,286047001.4,N
1552743815.2,286047004.2,N
1552743835.1,286047003.7,N
1552743836.0,286047003.7,N
1552743855.8,286047002.6,N
1552743875.6,286047002.6,N
1552743895.5,286047004.4,N
1552743915.3,286047001.8,N
1552743935.2,286047001.9,N
1552743955.9,286046999.7,N
1552743975.7,286047002.5,N
1552743995.6,286047000.2,N
1552744015.4,286047000.1,N
1552744035.2,286047001.2,N
1552744055.1,286047000.5,N
1552744056.0,286047000.5,N
1552744075.8,286046998.5,N
1552744095.7,286046998.9,N
1552744115.5,286046998.5,N
1552744135.3,286046998.9,N
1552744155.2,286046999.0,N
1552744175.0,286046999.6,N
1552744175.9,286046999.6,N
1552744195.7,286046995.4,N
1552744215.6,286046997.9,N
1552744235.4,286046995.1,N
1552744255.3,286046995.5,N
1552744275.1,286046995.9,N
1552744276.0,286046995.9,N
1552744295.8,286046995.4,N
1552744315.7,286046996.1,N
1552744335.5,286046995.7,N
1552744355.3,286046993.5,N
1552744375.2,286046993.7,N
1552744395.0,286046996.2,N
1552744395.9,286046996.2,N
1552744415.8,286046995.6,N
1552744435.6,286046993.3,N
1552744455.4,286046996.3,N
1552744475.3,286046994.6,N
1552744495.1,286046994.6,N
1552744515.9,286046993.8,N
1552744535.7,286046994.6,N
1552744555.5,286046992.2,Y
1552744575.4,286046995.1,P
1552744595.2,286046997.6,P
1552744615.0,286046997.6,N
1552744615.9,286046997.6,N
1552744635.8,286046996.9,Y
1552744655.6,286047002.0,P
1552744675.5,286047002.0,N
1552744695.3,286047002.0,N
1552744715.1,286047002.7,N
1552744735.9,286046999.8,N
1552744755.7,286047000.0,N
1552744775.5,286046998.7,N
1552744795.4,286046998.7,N
